CDT,Max TemperatureF,Mean TemperatureF,Min TemperatureF,Max Dew PointF,MeanDew PointF,Min DewpointF,Max Humidity, Mean Humidity, Min Humidity, Max Sea Level PressureIn, Mean Sea Level PressureIn, Min Sea Level PressureIn, Max VisibilityMiles, Mean VisibilityMiles, Min VisibilityMiles, Max Wind SpeedMPH, Mean Wind SpeedMPH, Max Gust SpeedMPH,PrecipitationIn, CloudCover, Events, WindDirDegrees
2013-5-1,86,80,73,72,70,68,93,75,57,29.90,29.81,29.75,10,8,0,18,11,23,0.00,5,,128
2013-5-2,81,69,56,70,59,41,93,70,46,30.27,30.03,29.87,10,10,5,38,20,45,T,5,Rain-Thunderstorm,354
2013-5-3,75,64,53,39,30,24,55,36,16,30.32,30.22,30.10,10,10,10,35,18,43,0.00,2,,343
2013-5-4,86,68,49,52,39,29,71,43,14,30.11,30.02,29.91,10,10,10,24,10,26,0.00,0,,176
2013-5-5,88,72,55,55,51,42,80,51,21,30.08,30.02,29.96,10,10,10,17,8,24,0.00,0,,129
2013-5-6,83,71,59,61,55,51,84,60,36,30.12,30.05,29.98,10,10,10,20,7,22,T,1,,120
2013-5-7,84,73,61,65,60,56,90,68,46,30.07,30.01,29.96,10,10,10,24,9,29,0.00,2,,117
2013-5-8,87,78,68,69,66,62,87,67,46,30.02,29.96,29.91,10,10,10,29,17,33,0.00,4,,148
2013-5-9,85,81,76,72,71,70,82,74,65,29.95,29.89,29.81,10,9,7,29,18,33,T,7,Rain,149
2013-5-10,85,81,76,74,71,64,88,73,58,29.94,29.87,29.82,10,6,3,28,12,33,0.01,8,Rain,96
2013-5-11,90,81,72,70,66,62,93,68,43,30.10,30.00,29.93,10,10,8,21,12,28,0.30,4,Rain-Thunderstorm,43
2013-5-12,80,73,65,70,63,56,84,71,57,30.17,30.12,30.05,10,10,5,21,10,25,0.30,6,Rain-Thunderstorm,45
2013-5-13,85,75,64,64,61,56,87,65,42,30.26,30.20,30.16,10,10,10,20,10,25,0.00,1,,86
2013-5-14,89,80,70,70,67,64,84,67,50,30.22,30.13,30.06,10,10,10,25,14,32,T,3,,137
2013-5-15,83,79,75,74,71,69,87,78,69,30.07,29.99,29.90,10,10,6,35,20,39,0.10,6,Rain-Thunderstorm,158
2013-5-16,92,83,74,73,71,69,87,72,56,29.89,29.82,29.74,10,10,7,31,20,39,0.00,4,,163
2013-5-17,94,85,76,73,71,66,87,64,41,29.90,29.83,29.78,10,10,7,28,18,36,0.00,4,,157
2013-5-18,95,86,77,73,71,64,85,63,41,29.92,29.87,29.83,10,9,4,35,22,40,0.00,4,,150
2013-5-19,93,86,78,73,72,67,85,63,41,29.85,29.81,29.74,10,8,4,35,24,41,0.00,5,,153
2013-5-20,93,86,79,74,73,71,85,69,52,29.84,29.78,29.72,10,10,7,31,22,38,0.00,6,,147
2013-5-21,92,86,79,75,73,72,85,69,52,29.80,29.76,29.69,10,9,6,29,18,35,0.00,6,,144
2013-5-22,90,85,80,75,74,72,85,71,56,29.89,29.83,29.78,10,8,5,17,11,21,T,5,Rain-Thunderstorm,128
2013-5-23,92,85,78,75,74,73,85,71,56,29.99,29.91,29.86,10,9,0,22,13,28,0.00,6,,129
2013-5-24,93,84,75,75,73,68,85,67,49,30.08,30.01,29.96,10,10,9,28,16,33,T,6,Rain-Thunderstorm,122
2013-5-25,85,80,74,77,74,70,85,80,74,30.09,30.05,30.00,10,8,0,30,17,40,0.69,6,Fog-Rain-Thunderstorm,137
2013-5-26,90,84,78,74,72,68,85,69,52,30.08,30.03,29.97,10,10,10,23,15,29,0.00,4,,141
2013-5-27,92,85,78,75,72,68,85,66,47,30.01,29.94,29.86,10,10,7,30,19,37,0.00,4,,146
2013-5-28,92,86,80,74,72,72,79,66,52,29.91,29.83,29.78,10,10,9,37,25,44,0.00,6,,145
2013-5-29,91,86,80,74,73,72,79,69,59,29.84,29.79,29.73,10,10,10,38,23,44,0.00,5,,149
2013-5-30,95,88,80,76,74,72,85,69,52,29.84,29.79,29.75,10,10,10,26,19,32,0.00,5,,146
2013-5-31,97,89,80,75,74,73,85,67,48,29.88,29.83,29.78,10,10,10,30,18,33,0.00,4,,152